TAP91SR LPPT-LPMA

Flight info

Callsign TAP91SR
Flight time N/A
Altitude 37000
Route ULVOT DCT GALPA DCT RAKUN
Aircraft A21N/M-SDE2E3FGHIRWXY/LB1

Departure

Time N/A
Airport Lisbon Humberto Delgado Airport (LPPT)

Arrival

Time 2026-05-07 22:00
Airport Cristiano Ronaldo International Airport (LPMA)
Time Latitude Longitude Altitude Speed Heading
2026-05-07 20:54 37.46463 -10.24042 33224 ft 461 kts 231°
2026-05-07 20:54 37.44455 -10.27181 33586 ft 460 kts 231°
2026-05-07 20:54 37.43129 -10.29251 33817 ft 460 kts 231°
2026-05-07 20:54 37.41124 -10.32380 34156 ft 459 kts 231°
2026-05-07 20:55 37.39120 -10.35505 34483 ft 458 kts 231°
2026-05-07 20:55 37.37117 -10.38626 34796 ft 458 kts 231°
2026-05-07 20:55 37.35119 -10.41739 35101 ft 457 kts 231°
2026-05-07 20:55 37.33127 -10.44845 35386 ft 456 kts 231°
2026-05-07 20:56 37.31155 -10.47944 35799 ft 452 kts 231°
2026-05-07 20:56 37.29196 -10.51005 36259 ft 447 kts 231°
2026-05-07 20:56 37.27253 -10.54031 36634 ft 444 kts 231°
2026-05-07 20:56 37.25314 -10.57047 36919 ft 443 kts 231°
2026-05-07 20:57 37.23368 -10.60065 37029 ft 446 kts 231°
2026-05-07 20:57 37.19509 -10.66032 37530 ft 440 kts 228°
2026-05-07 20:57 37.17593 -10.68928 37252 ft 424 kts 227°
2026-05-07 20:58 37.15751 -10.71735 36977 ft 407 kts 228°
2026-05-07 20:58 37.14020 -10.74437 36948 ft 390 kts 228°
2026-05-07 20:58 37.12341 -10.77070 36946 ft 384 kts 228°
2026-05-07 20:59 37.08986 -10.82269 36958 ft 383 kts 227°
2026-05-07 20:59 37.05623 -10.87442 36961 ft 383 kts 227°
2026-05-07 21:00 37.02253 -10.92608 36957 ft 383 kts 227°
2026-05-07 21:00 36.98874 -10.97782 36973 ft 386 kts 227°
2026-05-07 21:01 36.95465 -11.02969 36957 ft 386 kts 227°
2026-05-07 21:01 36.92083 -11.08129 36960 ft 386 kts 227°
2026-05-07 21:02 36.88678 -11.13321 36962 ft 386 kts 227°
2026-05-07 21:02 36.85274 -11.18509 36962 ft 386 kts 227°
2026-05-07 21:03 36.81864 -11.23691 36960 ft 386 kts 227°
2026-05-07 21:03 36.78451 -11.28868 36961 ft 386 kts 227°
2026-05-07 21:04 36.75025 -11.34056 36972 ft 389 kts 228°
2026-05-07 21:04 36.71580 -11.39270 36963 ft 390 kts 228°
2026-05-07 21:05 36.68130 -11.44486 36955 ft 390 kts 228°
2026-05-07 21:05 36.64699 -11.49670 36961 ft 390 kts 228°
2026-05-07 21:06 36.61243 -11.54885 36962 ft 390 kts 228°
2026-05-07 21:06 36.57783 -11.60092 36962 ft 390 kts 228°
2026-05-07 21:07 36.54323 -11.65298 36961 ft 390 kts 228°
2026-05-07 21:07 36.50856 -11.70485 36962 ft 390 kts 228°
2026-05-07 21:08 36.47390 -11.75672 36962 ft 390 kts 228°
2026-05-07 21:08 36.43949 -11.80824 36961 ft 390 kts 228°
2026-05-07 21:09 36.40483 -11.86007 36962 ft 390 kts 228°
2026-05-07 21:09 36.37027 -11.91180 36954 ft 388 kts 228°
2026-05-07 21:10 36.33564 -11.96318 36959 ft 388 kts 227°
2026-05-07 21:10 36.30119 -12.01428 36959 ft 388 kts 228°
2026-05-07 21:11 36.26653 -12.06567 36983 ft 391 kts 228°
2026-05-07 21:11 36.21401 -12.14345 36963 ft 392 kts 228°
2026-05-07 21:12 36.17902 -12.19526 36962 ft 392 kts 228°
2026-05-07 21:12 36.14400 -12.24705 36961 ft 392 kts 228°
2026-05-07 21:13 36.10918 -12.29847 36951 ft 392 kts 228°
2026-05-07 21:13 36.07429 -12.34983 36962 ft 389 kts 228°
2026-05-07 21:14 36.03943 -12.40115 36965 ft 390 kts 228°
2026-05-07 21:14 36.00446 -12.45247 36974 ft 391 kts 228°
2026-05-07 21:15 35.96924 -12.50392 36964 ft 392 kts 228°
2026-05-07 21:15 35.93416 -12.55542 36965 ft 392 kts 228°
2026-05-07 21:16 35.89905 -12.60685 36964 ft 392 kts 228°
2026-05-07 21:16 35.86386 -12.65824 36963 ft 392 kts 228°
2026-05-07 21:17 35.82885 -12.70915 36962 ft 392 kts 228°
2026-05-07 21:17 35.79361 -12.76033 36958 ft 390 kts 228°
2026-05-07 21:18 35.75839 -12.81140 36968 ft 395 kts 229°
2026-05-07 21:18 35.72283 -12.86295 36962 ft 395 kts 229°
2026-05-07 21:19 35.68723 -12.91458 36961 ft 395 kts 229°
2026-05-07 21:19 35.65159 -12.96605 36962 ft 395 kts 229°
2026-05-07 21:20 35.61589 -13.01748 36964 ft 395 kts 229°
2026-05-07 21:20 35.58040 -13.06859 36961 ft 395 kts 229°
2026-05-07 21:21 35.54462 -13.12008 36962 ft 395 kts 229°
2026-05-07 21:21 35.50869 -13.17145 36963 ft 398 kts 229°
2026-05-07 21:22 35.47271 -13.22308 36959 ft 398 kts 229°
2026-05-07 21:22 35.43698 -13.27441 36958 ft 398 kts 229°
2026-05-07 21:23 35.40103 -13.32594 36958 ft 398 kts 229°
2026-05-07 21:23 35.36502 -13.37734 36959 ft 397 kts 229°
2026-05-07 21:24 35.32901 -13.42876 36959 ft 398 kts 229°
2026-05-07 21:24 35.29284 -13.48008 36959 ft 398 kts 229°
2026-05-07 21:25 35.25669 -13.53156 36964 ft 400 kts 230°
2026-05-07 21:25 35.22027 -13.58323 36959 ft 401 kts 230°
2026-05-07 21:26 35.18377 -13.63501 36961 ft 401 kts 230°
2026-05-07 21:26 35.14753 -13.68637 36957 ft 401 kts 230°
2026-05-07 21:27 35.11095 -13.73795 36952 ft 401 kts 230°
2026-05-07 21:27 35.07444 -13.78948 36952 ft 401 kts 230°
2026-05-07 21:28 35.03790 -13.84086 36955 ft 401 kts 230°
2026-05-07 21:28 35.00120 -13.89243 36974 ft 404 kts 230°
2026-05-07 21:29 34.96434 -13.94428 36956 ft 405 kts 230°
2026-05-07 21:29 34.92768 -13.99578 36936 ft 403 kts 231°
2026-05-07 21:30 34.89099 -14.04723 36954 ft 401 kts 230°
2026-05-07 21:30 34.85432 -14.09850 36959 ft 401 kts 230°
2026-05-07 21:31 34.81762 -14.14978 36961 ft 401 kts 230°
2026-05-07 21:31 34.78084 -14.20095 36962 ft 401 kts 230°
2026-05-07 21:32 34.74390 -14.25244 36967 ft 409 kts 231°
2026-05-07 21:32 34.70623 -14.30485 36964 ft 417 kts 231°
2026-05-07 21:33 34.66775 -14.35823 36960 ft 417 kts 231°
2026-05-07 21:33 34.62975 -14.41088 36932 ft 416 kts 231°
2026-05-07 21:34 34.59163 -14.46363 36952 ft 415 kts 231°
2026-05-07 21:34 34.55356 -14.51617 36957 ft 414 kts 231°
2026-05-07 21:35 34.51547 -14.56876 36960 ft 414 kts 231°
2026-05-07 21:35 34.47706 -14.62143 36960 ft 418 kts 231°
2026-05-07 21:36 34.43887 -14.67408 36963 ft 418 kts 231°
2026-05-07 21:36 34.40033 -14.72700 36961 ft 419 kts 231°
2026-05-07 21:37 34.36025 -14.77823 36961 ft 419 kts 230°
2026-05-07 21:37 34.31984 -14.82933 36951 ft 418 kts 230°
2026-05-07 21:38 34.27964 -14.88018 36961 ft 418 kts 230°
2026-05-07 21:38 34.23925 -14.93097 36961 ft 419 kts 229°
2026-05-07 21:39 34.21891 -14.95658 36617 ft 424 kts 226°
2026-05-07 21:39 34.19832 -14.98249 36827 ft 430 kts 226°
2026-05-07 21:39 34.17743 -15.00874 36943 ft 438 kts 226°
2026-05-07 21:39 34.15635 -15.03520 36993 ft 447 kts 226°
2026-05-07 21:40 34.11229 -15.09054 37015 ft 466 kts 226°
2026-05-07 21:40 34.06648 -15.14813 37020 ft 484 kts 226°
2026-05-07 21:41 34.04299 -15.17756 36879 ft 490 kts 226°
2026-05-07 21:41 34.01885 -15.20778 36491 ft 508 kts 226°
2026-05-07 21:41 33.99453 -15.23813 36195 ft 510 kts 226°
2026-05-07 21:41 33.96990 -15.26886 35925 ft 511 kts 226°
2026-05-07 21:42 33.94526 -15.29955 35662 ft 511 kts 226°
2026-05-07 21:42 33.92056 -15.33032 35404 ft 511 kts 226°
2026-05-07 21:42 33.89589 -15.36106 34921 ft 509 kts 226°
2026-05-07 21:42 33.87150 -15.39150 34527 ft 505 kts 226°
2026-05-07 21:43 33.84705 -15.42196 34233 ft 505 kts 226°
2026-05-07 21:43 33.82277 -15.45219 33962 ft 504 kts 226°
2026-05-07 21:43 33.79831 -15.48276 33704 ft 507 kts 226°
2026-05-07 21:43 33.77378 -15.51327 33200 ft 511 kts 226°
2026-05-07 21:44 33.75740 -15.53357 32684 ft 507 kts 226°
2026-05-07 21:44 33.73294 -15.56393 31774 ft 501 kts 226°
2026-05-07 21:44 33.70881 -15.59388 30798 ft 497 kts 226°
2026-05-07 21:44 33.67684 -15.63337 29469 ft 501 kts 226°
2026-05-07 21:45 33.65248 -15.66349 28434 ft 506 kts 226°
2026-05-07 21:45 33.63584 -15.68401 27721 ft 507 kts 225°
2026-05-07 21:45 33.61118 -15.71433 26605 ft 508 kts 226°
2026-05-07 21:45 33.58656 -15.74461 25460 ft 505 kts 225°
2026-05-07 21:46 33.56210 -15.77462 24459 ft 501 kts 225°
2026-05-07 21:46 33.53745 -15.80386 23494 ft 495 kts 224°
2026-05-07 21:46 33.51312 -15.83243 22590 ft 484 kts 224°
2026-05-07 21:46 33.48958 -15.86006 21796 ft 476 kts 224°
2026-05-07 21:47 33.46611 -15.88764 20917 ft 470 kts 224°
2026-05-07 21:47 33.44294 -15.91486 20033 ft 462 kts 224°
2026-05-07 21:47 33.42010 -15.94158 19187 ft 455 kts 224°
2026-05-07 21:47 33.39763 -15.96790 18363 ft 449 kts 224°
2026-05-07 21:48 33.37546 -15.99384 17554 ft 443 kts 224°
2026-05-07 21:48 33.35351 -16.01936 16831 ft 436 kts 224°
2026-05-07 21:48 33.33190 -16.04459 16140 ft 429 kts 224°
2026-05-07 21:48 33.31069 -16.06936 15455 ft 423 kts 224°
2026-05-07 21:49 33.28973 -16.09374 14744 ft 419 kts 224°
2026-05-07 21:49 33.26895 -16.11791 14060 ft 414 kts 224°
2026-05-07 21:49 33.24865 -16.14152 13352 ft 410 kts 224°
2026-05-07 21:49 33.22825 -16.16527 12617 ft 408 kts 224°
2026-05-07 21:50 33.20803 -16.18880 11939 ft 402 kts 224°
2026-05-07 21:50 33.18840 -16.21160 11558 ft 385 kts 224°
2026-05-07 21:50 33.16964 -16.23336 11293 ft 367 kts 224°
2026-05-07 21:50 33.15172 -16.25416 11078 ft 351 kts 224°
2026-05-07 21:51 33.13461 -16.27395 10892 ft 335 kts 224°
2026-05-07 21:51 33.11825 -16.29288 10728 ft 321 kts 224°
2026-05-07 21:51 33.10254 -16.31109 10580 ft 307 kts 224°
2026-05-07 21:51 33.08742 -16.32849 10275 ft 300 kts 224°
2026-05-07 21:52 33.07242 -16.34578 9810 ft 299 kts 224°
2026-05-07 21:52 33.05748 -16.36306 9359 ft 298 kts 224°
2026-05-07 21:52 33.04286 -16.37994 8950 ft 295 kts 224°
2026-05-07 21:52 33.02814 -16.39693 8534 ft 293 kts 224°
2026-05-07 21:53 33.01353 -16.41374 8135 ft 290 kts 224°
2026-05-07 21:53 32.99907 -16.43041 7746 ft 288 kts 224°
2026-05-07 21:53 32.98477 -16.44694 7359 ft 285 kts 224°
2026-05-07 21:53 32.97061 -16.46327 6979 ft 282 kts 224°
2026-05-07 21:54 32.95660 -16.47941 6613 ft 279 kts 224°
2026-05-07 21:54 32.94267 -16.49547 6258 ft 278 kts 224°
2026-05-07 21:54 32.92885 -16.51138 5908 ft 276 kts 224°
2026-05-07 21:54 32.91478 -16.52696 5564 ft 276 kts 221°
2026-05-07 21:55 32.90037 -16.54218 5241 ft 276 kts 221°
2026-05-07 21:55 32.88609 -16.55732 4948 ft 272 kts 221°
2026-05-07 21:55 32.87223 -16.57203 4774 ft 262 kts 221°
2026-05-07 21:55 32.85909 -16.58598 4639 ft 251 kts 222°
2026-05-07 21:56 32.84625 -16.59970 4364 ft 247 kts 222°
2026-05-07 21:56 32.83329 -16.61345 4007 ft 246 kts 221°
2026-05-07 21:56 32.82068 -16.62679 3703 ft 244 kts 221°
2026-05-07 21:56 32.80818 -16.64004 3545 ft 235 kts 221°
2026-05-07 21:57 32.79627 -16.65272 3426 ft 224 kts 221°
2026-05-07 21:57 32.78490 -16.66484 3278 ft 216 kts 222°
2026-05-07 21:57 32.77396 -16.67652 3022 ft 208 kts 222°
2026-05-07 21:57 32.76371 -16.68742 2840 ft 189 kts 222°
2026-05-07 21:58 32.75509 -16.69755 2681 ft 155 kts 227°
2026-05-07 21:58 32.74919 -16.70698 2326 ft 135 kts 237°
2026-05-07 21:58 32.74415 -16.71618 2031 ft 132 kts 236°
2026-05-07 21:58 32.73868 -16.72473 1701 ft 131 kts 229°
2026-05-07 21:59 32.73265 -16.73281 1340 ft 130 kts 227°
2026-05-07 21:59 32.72632 -16.74048 1034 ft 130 kts 227°
2026-05-07 21:59 32.72014 -16.74830 769 ft 130 kts 223°
2026-05-07 21:59 32.71370 -16.75577 522 ft 129 kts 226°
2026-05-07 22:00 32.70738 -16.76331 274 ft 129 kts 225°
2026-05-07 22:00 32.70127 -16.77052 194 ft 110 kts 225°
2026-05-07 22:00 32.69789 -16.77444 189 ft 45 kts 224°
2026-05-07 22:00 32.69563 -16.77708 181 ft 46 kts 225°
2026-05-07 22:01 32.69415 -16.77884 176 ft 23 kts 225°
2026-05-07 22:01 32.69327 -16.77963 175 ft 13 kts 170°